Morris, MN

8:16 AM CDT on April 28, 2017 (GMT -0500)
Morris Municipal

Weather History for KMOX - March, 2014

Change the Weather History Date:

Monday, March 10, 2014

  Actual Average Record
Temperature  
Mean Temperature 44 °F -  
Max Temperature 53 °F 28 °F 55 °F (2015)
Min Temperature 35 °F 11 °F -9 °F (2003)
Degree Days  
Heating Degree Days 21    
Moisture  
Dew Point 37 °F    
Average Humidity 76    
Maximum Humidity 87    
Minimum Humidity 62    
Precipitation  
Precipitation 0.00 in - - ()
Sea Level Pressure  
Sea Level Pressure 29.67 in    
Wind  
Wind Speed 9 mph (NW)    
Max Wind Speed 16 mph    
Max Gust Speed 21 mph    
Visibility 10 miles    
Events      
Averages and records for this station are not official NWS values.
T = Trace of Precipitation, MM = Missing Value Source: NWS Daily Summary

Daily Weather History Graph

Daily Weather History Graph

Search for Another Location

Airport or City:

Trip Planner

Search our weather history database for the weather conditions in past years. The results will help you decide how hot, cold, wet, or windy it might be!

Date:

Astronomy

Mar. 10, 2014 Rise Set
Actual Time 7:45 AM CDT 7:23 PM CDT
Civil Twilight 7:16 AM CDT 7:52 PM CDT
Nautical Twilight 6:41 AM CDT 8:27 PM CDT
Astronomical Twilight 6:07 AM CDT 9:02 PM CDT
Moon 1:56 PM CDT (3/10) 4:10 AM CDT (3/10)
Length of Visible Light 12h 36m
Length of Day
11h 37m
Waxing Gibbous, 70% of the Moon is Illuminated
Mar 10
Waxing Gibbous
Mar 16
Full
Mar 23
Last Quarter
Mar 30
New
Apr 7
First Quarter

Hourly Weather History & Observations

Time (CDT) Temp. Windchill Dew Point Humidity Pressure Visibility Wind Dir Wind Speed Gust Speed Precip Events Conditions
12:16 AM 37.4 °F 31.4 °F 33.8 °F 87% 29.63 in 10.0 mi WSW 8.1 mph - N/A   Clear
12:36 AM 39.2 °F 34.2 °F 33.8 °F 81% 29.63 in 10.0 mi West 6.9 mph - N/A   Clear
12:56 AM 39.2 °F 33.6 °F 33.8 °F 81% 29.63 in 10.0 mi West 8.1 mph - N/A   Clear
1:16 AM 37.4 °F 31.4 °F 32.0 °F 81% 29.62 in 10.0 mi West 8.1 mph - N/A   Clear
1:36 AM 37.4 °F 31.4 °F 33.8 °F 87% 29.62 in 10.0 mi West 8.1 mph - N/A   Clear
1:56 AM 37.4 °F 31.4 °F 33.8 °F 87% 29.62 in 10.0 mi West 8.1 mph - N/A   Clear
2:16 AM 37.4 °F 30.3 °F 33.8 °F 87% 29.63 in 10.0 mi West 10.4 mph - N/A   Clear
2:36 AM 37.4 °F 30.8 °F 33.8 °F 87% 29.63 in 10.0 mi West 9.2 mph - N/A   Clear
2:56 AM 37.4 °F 30.8 °F 33.8 °F 87% 29.62 in 10.0 mi West 9.2 mph - N/A   Clear
3:16 AM 37.4 °F 30.8 °F 33.8 °F 87% 29.62 in 10.0 mi West 9.2 mph - N/A   Clear
3:36 AM 35.6 °F 29.2 °F 32.0 °F 87% 29.61 in 10.0 mi West 8.1 mph - N/A   Clear
3:56 AM 35.6 °F 29.2 °F 32.0 °F 87% 29.61 in 10.0 mi West 8.1 mph - N/A   Clear
4:16 AM 37.4 °F 32.1 °F 32.0 °F 81% 29.61 in 10.0 mi West 6.9 mph - N/A   Clear
4:36 AM 37.4 °F 32.1 °F 32.0 °F 81% 29.61 in 10.0 mi West 6.9 mph - N/A   Clear
4:56 AM 37.4 °F 31.4 °F 33.8 °F 87% 29.62 in 10.0 mi West 8.1 mph - N/A   Clear
5:16 AM 39.2 °F 32.5 °F 33.8 °F 81% 29.62 in 10.0 mi West 10.4 mph - N/A   Clear
5:36 AM 39.2 °F 33.6 °F 33.8 °F 81% 29.62 in 10.0 mi West 8.1 mph - N/A   Clear
5:56 AM 39.2 °F 33.6 °F 33.8 °F 81% 29.61 in 10.0 mi West 8.1 mph - N/A   Clear
6:16 AM 37.4 °F 31.4 °F 33.8 °F 87% 29.62 in 10.0 mi West 8.1 mph - N/A   Clear
6:36 AM 39.2 °F 32.5 °F 33.8 °F 81% 29.62 in 10.0 mi West 10.4 mph - N/A   Clear
6:56 AM 39.2 °F 32.5 °F 33.8 °F 81% 29.63 in 10.0 mi West 10.4 mph - N/A   Clear
7:16 AM 39.2 °F 32.0 °F 33.8 °F 81% 29.63 in 10.0 mi West 11.5 mph - N/A   Clear
7:36 AM 39.2 °F 31.2 °F 33.8 °F 81% 29.64 in 10.0 mi West 13.8 mph - N/A   Clear
7:56 AM 39.2 °F 33.0 °F 33.8 °F 81% 29.64 in 10.0 mi WNW 9.2 mph - N/A   Clear
8:16 AM 39.2 °F 33.6 °F 33.8 °F 81% 29.65 in 10.0 mi West 8.1 mph - N/A   Clear
8:36 AM 42.8 °F 36.2 °F 35.6 °F 76% 29.66 in 10.0 mi WNW 12.7 mph - N/A   Clear
8:56 AM 42.8 °F 36.6 °F 35.6 °F 76% 29.66 in 10.0 mi West 11.5 mph - N/A   Clear
9:16 AM 42.8 °F 37.5 °F 35.6 °F 76% 29.67 in 10.0 mi WNW 9.2 mph - N/A   Clear
9:36 AM 44.6 °F 38.8 °F 37.4 °F 76% 29.68 in 10.0 mi West 11.5 mph - N/A   Clear
9:56 AM 46.4 °F 40.7 °F 39.2 °F 76% 29.68 in 10.0 mi WNW 12.7 mph - N/A   Clear
10:16 AM 48.2 °F - 39.2 °F 71% 29.68 in 10.0 mi WNW 13.8 mph - N/A   Clear
10:36 AM 48.2 °F - 39.2 °F 71% 29.68 in 10.0 mi WNW 16.1 mph 20.7 mph N/A   Clear
10:56 AM 48.2 °F - 39.2 °F 71% 29.69 in 10.0 mi NW 16.1 mph 20.7 mph N/A   Clear
11:16 AM 48.2 °F - 39.2 °F 71% 29.69 in 10.0 mi NW 15.0 mph - N/A   Clear
11:36 AM 50.0 °F - 39.2 °F 66% 29.70 in 10.0 mi NW 16.1 mph 20.7 mph N/A   Clear
11:56 AM 50.0 °F - 39.2 °F 66% 29.70 in 10.0 mi NW 16.1 mph - N/A   Clear
12:16 PM 50.0 °F - 39.2 °F 66% 29.71 in 10.0 mi NW 15.0 mph - N/A   Clear
12:36 PM 51.8 °F - 39.2 °F 62% 29.71 in 10.0 mi NW 16.1 mph - N/A   Clear
12:56 PM 51.8 °F - 39.2 °F 62% 29.70 in 10.0 mi NW 12.7 mph - N/A   Clear
1:16 PM 51.8 °F - 39.2 °F 62% 29.69 in 10.0 mi NNW 10.4 mph - N/A   Clear
1:36 PM 51.8 °F - 39.2 °F 62% 29.68 in 10.0 mi NNW 10.4 mph - N/A   Clear
1:56 PM 53.6 °F - 41.0 °F 62% 29.68 in 10.0 mi NNW 10.4 mph - N/A   Clear
2:16 PM 53.6 °F - 42.8 °F 67% 29.67 in 10.0 mi North 8.1 mph - N/A   Clear
2:36 PM 53.6 °F - 42.8 °F 67% 29.66 in 10.0 mi North 6.9 mph - N/A   Clear
2:56 PM 53.6 °F - 41.0 °F 62% 29.67 in 10.0 mi NNW 8.1 mph - N/A   Clear
3:16 PM 53.6 °F - 41.0 °F 62% 29.68 in 10.0 mi NNW 9.2 mph - N/A   Clear
3:36 PM 53.6 °F - 41.0 °F 62% 29.68 in 10.0 mi NNW 6.9 mph - N/A   Clear
3:56 PM 51.8 °F - 41.0 °F 67% 29.67 in 10.0 mi NW 4.6 mph - N/A   Clear
4:16 PM 53.6 °F - 41.0 °F 62% 29.68 in 10.0 mi WNW 6.9 mph - N/A   Clear
4:36 PM 53.6 °F - 41.0 °F 62% 29.68 in 10.0 mi NW 8.1 mph - N/A   Clear
4:56 PM 53.6 °F - 42.8 °F 67% 29.69 in 10.0 mi NW 5.8 mph - N/A   Clear
5:16 PM 51.8 °F - 42.8 °F 71% 29.69 in 10.0 mi NNW 5.8 mph - N/A   Clear
5:36 PM 51.8 °F - 42.8 °F 71% 29.68 in 10.0 mi North 3.5 mph - N/A   Clear
5:56 PM 50.0 °F - 42.8 °F 76% 29.68 in 10.0 mi North 4.6 mph - N/A   Clear
6:16 PM 48.2 °F - 42.8 °F 82% 29.67 in 10.0 mi North 4.6 mph - N/A   Clear
6:36 PM 48.2 °F - 41.0 °F 76% 29.68 in 10.0 mi North 3.5 mph - N/A   Clear
6:56 PM 46.4 °F - 41.0 °F 81% 29.68 in 10.0 mi Calm Calm - N/A   Clear
7:16 PM 44.6 °F 41.4 °F 39.2 °F 81% 29.70 in 10.0 mi North 5.8 mph - N/A   Clear
7:36 PM 46.4 °F 43.5 °F 39.2 °F 76% 29.71 in 10.0 mi WNW 5.8 mph - N/A   Clear
7:56 PM 42.8 °F 38.0 °F 39.2 °F 87% 29.71 in 10.0 mi NE 8.1 mph - N/A   Clear
8:16 PM 44.6 °F 43.1 °F 39.2 °F 81% 29.71 in 10.0 mi NNE 3.5 mph - N/A   Clear
8:36 PM 44.6 °F 41.4 °F 37.4 °F 76% 29.71 in 10.0 mi NNE 5.8 mph - N/A   Clear
8:56 PM 42.8 °F 38.6 °F 37.4 °F 81% 29.70 in 10.0 mi NNE 6.9 mph - N/A   Clear
9:16 PM 42.8 °F 38.0 °F 37.4 °F 81% 29.71 in 10.0 mi North 8.1 mph - N/A   Clear
9:36 PM 42.8 °F 38.6 °F 37.4 °F 81% 29.71 in 10.0 mi NNE 6.9 mph - N/A   Clear
9:56 PM 42.8 °F 41.1 °F 37.4 °F 81% 29.72 in 10.0 mi NW 3.5 mph 10.4 mph N/A   Clear
10:16 PM 42.8 °F 38.0 °F 35.6 °F 76% 29.72 in 10.0 mi North 8.1 mph - N/A   Clear
10:36 PM 42.8 °F 36.6 °F 35.6 °F 76% 29.72 in 10.0 mi NNW 11.5 mph - N/A   Light Drizzle
10:56 PM 42.8 °F 38.0 °F 37.4 °F 81% 29.73 in 10.0 mi NNW 8.1 mph - N/A   Light Drizzle
11:16 PM 42.8 °F 38.6 °F 35.6 °F 76% 29.74 in 10.0 mi NW 6.9 mph - N/A   Light Drizzle
11:36 PM 41.0 °F 35.8 °F 35.6 °F 81% 29.74 in 10.0 mi NW 8.1 mph - N/A   Clear
11:56 PM 39.2 °F 35.0 °F 35.6 °F 87% 29.74 in 10.0 mi NNW 5.8 mph - N/A   Clear